GFSMW_con_mlcape_336.txt.gz
CAPE
418 140 23 4 0 7 406 315 439 300 652 791 586 667 535 711 768 687 1316 1643 1389 2319 1426 1502 1207 923 1604 836 89 298 1346 1749 884 859 2 0 0 0 2 123 179 947 1383
769 310 186 105 83 107 372 492 459 485 475 559 824 705 739 703 644 719 809 1436 1417 1831 1405 1314 1504 733 659 1 0 974 1349 797 1259 1523 334 112 10 0 0 0 2 1448 876
876 550 356 201 211 315 414 764 772 929 480 761 874 1073 1089 875 872 649 908 959 963 1300 1703 2284 868 2216 938 104 398 397 1497 1240 815 1328 1305 317 2 0 0 0 0 1010 711
835 839 461 339 290 426 802 992 1043 1385 1138 853 1309 854 884 881 659 797 522 627 1226 1323 1650 2248 2361 2415 2044 1269 516 222 1183 1580 948 874 1109 1000 56 0 0 0 0 105 921
502 773 571 463 370 386 811 1171 1336 1546 1580 1390 1416 1639 1173 1156 775 726 653 596 1391 1514 1927 2041 2540 2648 1742 1102 265 776 1156 951 1683 1056 939 200 1760 351 1073 494 119 215 1208
365 558 816 546 477 528 597 996 1582 1498 1731 1984 1286 1389 1848 959 1150 791 705 621 1012 1071 1151 1872 2710 2701 2606 1168 166 0 954 983 954 1532 1566 1328 647 1310 1473 1164 1063 1086 1064
2 483 723 664 583 554 587 730 1480 1654 1908 1908 2314 1503 1346 2340 985 1078 1035 570 907 1399 2254 1597 2886 2660 2493 1789 1226 570 1729 1645 1237 1428 1878 1795 1486 809 738 988 894 1106 1255
46 95 518 865 616 539 544 527 1195 1585 1647 2048 2046 2688 1895 1557 2595 1236 1157 364 478 1231 1582 1569 2433 2512 1388 3 503 2107 2094 2257 2050 1492 1465 1544 1711 2005 689 558 1203 876 1133
388 372 433 667 749 620 595 495 659 1458 1646 1731 2085 2090 2705 2039 1838 1542 1416 708 867 1520 2482 1417 354 192 2696 2815 2752 2119 1995 1940 2029 2052 1606 1948 1673 1752 0 0 17 1333 750
460 521 593 763 778 788 643 563 453 1282 1579 1713 1982 2272 2413 2676 2252 1945 1848 1092 513 1280 1926 1086 632 1048 490 2613 1879 2140 2229 1873 1748 2369 2223 1976 1651 1326 692 40 491 1571 1321
495 610 757 713 800 753 870 786 655 983 1481 1672 2085 2300 2525 2810 2679 2603 2009 1581 811 1102 2565 1704 609 2 204 2233 2094 1848 1818 1574 1721 1874 1737 1268 998 658 1055 1393 1058 1098 1369
556 987 1089 926 834 776 827 932 947 789 1365 1591 1924 1966 2440 2531 2865 2358 1989 1601 1629 2023 2171 2896 2553 1981 2381 2278 2256 2081 1918 1773 2051 1752 1803 1126 231 654 1268 856 641 603 450
1459 1410 1332 1457 1248 975 1440 1335 1544 1406 1664 2056 1610 1985 2073 2126 2057 2122 2147 1885 1955 2198 2533 2495 2663 1801 1627 1541 1822 2057 1759 1672 1796 1643 1426 1300 1140 1110 999 703 530 428 387
1596 1481 1864 1894 1870 1992 1797 1742 1428 1063 804 872 901 789 593 485 338 414 731 1128 1283 1321 1284 1348 1581 1280 1281 1037 1057 1162 1092 967 811 837 828 773 752 692 653 555 191 106 210
1985 2181 2239 2110 2129 1922 1795 1410 1165 818 360 291 338 262 79 6 8 149 31 85 181 182 278 479 815 543 449 182 298 104 126 172 192 195 224 190 10 0 0 27 0 0 0
2260 2449 2490 2491 2490 2260 1288 1209 709 1033 586 544 416 275 29 0 1 20 1 149 176 43 73 153 93 150 0 0 0 0 0 0 0 11 15 9 0 0 0 0 0 0 0
2706 2371 2092 1660 1899 2326 2295 1801 1371 1058 649 415 273 118 55 10 0 44 64 5 17 15 110 187 166 82 0 0 0 0 0 0 0 0 20 20 3 0 11 0 0 0 0
2334 1666 1350 1309 1701 1731 1874 1755 1230 905 558 381 226 22 48 20 0 5 36 96 62 27 25 48 27 10 0 0 0 0 0 0 0 0 0 0 0 0 0 0 0 0 0
1805 1416 1172 1265 1482 1512 1582 1152 941 643 569 539 539 413 364 332 223 195 67 34 43 61 3 3 0 7 4 0 0 0 0 0 0 0 0 0 0 0 0 0 0 0 0
1829 1565 1139 1057 1197 1492 1254 991 930 740 385 229 188 256 271 305 187 147 47 3 1 3 0 0 0 0 0 0 0 0 0 0 0 0 0 0 0 0 0 0 0 0 0
2230 1835 1402 1035 1068 1245 1520 1061 542 198 87 77 53 42 37 41 33 23 8 4 0 0 0 0 0 0 0 0 0 0 0 0 0 0 0 0 0 0 0 0 0 0 0
1995 1529 1421 1387 1479 1059 677 565 307 163 91 56 25 7 3 2 1 0 0 0 0 0 0 0 0 0 6 3 0 0 0 0 0 0 0 0 0 0 0 0 0 0 0
1411 970 1033 890 692 548 491 374 290 255 218 152 68 11 0 0 0 0 0 0 0 0 0 0 0 1 13 21 0 0 0 0 0 0 0 0 0 0 0 0 0 0 0
597 417 503 447 532 466 383 385 358 320 270 147 18 0 0 0 0 0 0 0 0 0 0 0 0 0 16 12 0 0 0 0 0 0 0 0 0 0 0 0 0 0 1
616 556 543 407 358 160 184 280 265 193 62 0 0 0 0 0 0 0 0 0 0 0 0 0 0 0 0 0 0 0 0 0 0 0 0 0 0 0 0 10 4 0 0
389 380 336 359 303 171 95 36 10 0 0 0 0 0 0 0 0 0 0 0 0 0 0 0 0 0 0 0 0 0 0 0 0 0 0 0 0 16 8 0 0 1 1

GFSMW_con_mlcape_339.txt.gz
CAPE
5 3 6 16 21 156 244 300 381 817 917 1028 679 430 358 233 571 425 510 1366 1631 1460 1301 1542 1481 1005 874 832 492 14 282 659 512 212 19 0 0 44 3 0 0 173 612
116 10 0 3 27 115 158 144 266 593 829 750 500 216 468 448 504 520 646 1610 1768 1876 1658 873 1192 783 731 184 19 365 608 1075 896 539 206 45 0 0 0 0 0 199 377
430 90 12 23 18 115 130 109 167 442 559 577 400 274 326 643 624 634 663 1366 1367 1438 1344 1146 1635 1409 932 791 0 100 165 534 840 656 426 62 53 0 0 0 0 1 8
666 196 66 58 66 98 212 164 220 312 344 415 613 527 492 612 790 818 727 1003 1108 788 927 1501 1837 1501 1285 804 103 23 0 650 986 887 840 834 188 0 0 0 0 1 14
691 416 205 102 112 197 322 252 311 390 336 308 414 510 706 823 560 829 606 536 773 857 1004 1109 1607 2588 1638 1004 723 821 712 1189 1165 1173 949 506 0 33 259 23 49 4 81
730 556 396 171 156 337 428 436 413 563 546 482 381 1001 864 688 989 743 576 743 880 853 1074 1162 1713 2377 1824 1229 823 107 0 222 670 502 986 1052 786 592 346 588 383 191 373
740 665 451 323 207 367 547 764 558 751 911 842 743 588 1186 1611 766 722 961 981 658 580 967 1114 1430 2075 1826 933 569 426 211 196 1161 976 679 919 728 63 0 354 531 508 453
43 642 564 439 296 277 685 971 918 754 1177 1242 1018 1023 704 1061 1843 1362 1018 867 522 377 1027 1292 1498 1240 1249 894 548 434 823 899 1190 1373 1441 1148 817 378 159 181 200 295 557
232 367 738 539 420 339 443 783 1349 1095 1096 1137 1465 1393 1396 1113 888 1662 2080 1259 824 704 1279 1471 872 508 86 582 43 56 1305 1298 1489 1479 1280 1266 479 241 197 33 5 109 308
306 322 620 767 582 501 527 529 1255 1328 1259 1335 1194 1393 1785 2002 1818 1325 1432 1786 1061 964 1075 1051 604 394 139 88 1059 904 0 354 1353 1615 1054 1307 697 425 284 0 82 6 78
421 576 697 764 748 621 578 575 958 1299 1328 1245 1521 1577 1519 2213 2399 2256 1998 1904 1488 1261 1117 1056 936 385 222 62 1026 984 621 1171 1065 1266 982 925 656 676 500 514 23 258 549
596 823 983 1314 959 741 661 603 510 1093 1250 1462 1588 1936 2230 2276 1651 778 620 1142 1598 1154 1361 1219 1184 703 8 197 1027 1245 1225 1233 1003 1086 1115 879 263 102 928 857 658 624 470
1206 1302 1519 1680 1719 1553 1106 930 961 858 1707 1873 1779 1612 1599 1213 864 165 96 80 428 583 1128 1311 1387 1273 1279 1161 1180 1030 853 734 676 740 774 924 906 863 816 706 608 492 371
1738 2152 2000 1848 1748 1675 1324 1251 1176 1150 1349 1358 1378 891 315 68 0 95 219 52 10 10 314 426 359 306 246 327 287 225 199 204 223 277 329 158 202 310 474 453 155 84 63
1084 1879 2741 2437 2042 1610 1245 958 718 877 882 863 569 130 0 0 0 60 43 0 0 46 125 143 158 79 54 9 0 0 6 0 0 5 23 21 0 0 0 3 11 0 0
0 266 1892 1989 2558 1731 1345 1070 626 434 303 306 130 0 0 0 0 25 35 2 0 4 6 12 14 18 3 0 0 0 0 0 0 0 0 0 0 0 0 0 0 0 0
107 330 1555 1740 2243 2003 1567 992 563 330 216 160 144 77 3 13 1 9 5 76 66 3 64 92 60 43 0 0 0 0 0 0 0 0 0 0 0 0 0 0 0 0 0
599 677 629 716 1711 2250 1542 955 576 441 411 328 207 96 55 19 2 0 6 15 31 46 108 15 30 0 0 0 0 0 0 0 0 0 0 0 0 0 0 0 0 0 0
22 1 202 794 1472 1791 1258 952 723 550 328 122 0 0 0 22 85 83 38 41 76 23 2 0 0 0 0 0 0 0 0 0 0 0 0 0 0 0 0 0 0 0 0
107 894 1025 1117 1306 1383 926 631 617 649 514 330 360 449 399 257 205 96 31 0 0 0 0 0 0 0 0 0 0 0 0 0 0 0 0 0 0 0 0 0 0 0 0
1387 1293 1093 1006 1112 1101 894 637 327 265 151 92 74 78 65 55 34 6 0 0 0 0 0 0 0 0 0 0 0 0 0 0 0 0 0 0 0 0 0 0 0 0 0
18 922 960 929 1244 1079 426 180 134 141 43 28 26 6 3 0 0 0 0 0 0 0 0 0 0 0 0 0 0 0 0 0 0 0 0 0 0 0 0 0 0 0 0
0 0 0 1086 561 366 233 181 76 66 24 0 0 0 0 0 0 0 0 0 0 0 0 0 0 0 0 0 0 0 0 0 0 0 0 0 0 0 0 0 0 0 0
0 0 1 269 254 259 212 166 103 70 27 0 0 0 0 0 0 0 0 0 0 0 0 0 0 0 0 0 0 0 0 0 0 0 0 0 0 0 0 0 0 0 0
0 0 256 84 190 182 149 102 56 52 6 0 0 0 0 0 0 0 0 0 0 0 0 0 0 0 0 0 0 0 0 0 0 0 0 0 0 0 0 0 0 0 0
9 27 94 78 127 170 43 3 0 0 0 0 0 0 0 0 0 0 0 0 0 0 0 0 0 0 0 0 0 0 0 0 0 0 0 0 0 0 0 0 0 0 0

GFSMW_con_mlcape_342.txt.gz
CAPE
29 42 17 13 35 70 119 247 301 243 298 371 402 463 257 75 15 199 222 389 868 1371 1144 1206 1244 1348 1225 929 687 274 61 329 624 218 161 33 0 0 0 42 80 120 263
10 4 17 13 22 65 156 254 365 399 415 537 532 466 311 30 129 174 352 638 1065 1318 1390 1180 1343 1080 887 602 252 186 674 588 280 521 74 68 9 0 0 21 3 45 95
66 0 15 41 84 84 153 261 435 578 655 784 682 474 316 252 275 341 383 629 1106 1428 1524 1303 1145 963 1036 848 503 21 235 549 522 508 261 47 30 0 0 0 0 1 79
91 2 0 23 71 138 161 217 382 617 694 743 671 490 204 72 223 457 494 596 1002 1685 1396 1529 1217 1329 1272 859 782 102 9 66 532 668 721 491 108 2 4 0 0 0 4
361 137 7 10 32 129 164 198 356 457 503 589 606 428 251 138 155 512 699 672 947 1316 1423 1218 1059 1244 1278 1284 913 361 505 24 692 792 609 486 39 0 77 65 0 5 47
612 366 94 6 20 141 195 202 256 348 415 492 516 351 287 314 546 678 563 508 580 974 1101 799 879 1483 1574 1403 1231 616 726 367 672 789 719 513 446 292 255 283 256 204 257
693 678 265 45 68 128 282 263 251 290 343 411 459 486 448 343 577 648 784 785 657 835 942 820 1000 1359 1728 1469 916 526 285 49 0 660 885 945 658 213 47 115 99 3 121
412 603 469 236 189 217 354 380 361 386 442 428 389 467 537 624 1002 722 676 774 815 800 799 742 1064 1201 1160 1110 721 598 500 475 716 806 1208 1006 479 327 11 0 12 161 302
561 632 530 381 246 366 402 556 506 550 603 541 643 561 558 508 969 1519 1566 1259 1118 888 616 750 938 1174 1112 890 638 19 8 84 1054 1227 1452 1253 806 495 148 27 75 69 151
382 558 669 534 356 340 612 800 761 662 771 906 948 959 905 736 657 1055 1451 1574 1402 1241 1439 1224 981 1016 1001 862 572 194 300 22 0 945 1301 969 293 184 97 45 0 0 6
486 635 751 610 580 448 536 945 1089 966 933 1125 1259 1380 1482 1651 1524 1233 1024 712 604 524 1205 1157 890 624 315 138 155 657 521 145 340 859 895 745 206 209 98 4 9 68 208
1283 1369 1457 1305 939 698 526 767 1160 1399 1265 1274 1455 1466 1869 2063 1619 944 517 122 12 17 151 492 828 562 462 229 114 659 1224 845 747 753 652 560 506 547 419 459 45 352 547
1594 1491 1515 1496 1345 1204 901 705 841 1440 1650 1600 1753 1820 1628 1736 1405 599 125 17 24 42 77 24 133 461 225 315 687 707 589 445 600 620 547 500 178 338 467 591 722 464 392
1667 1702 1941 1766 1581 1396 1276 1169 1018 1109 1586 1518 1511 1583 1674 1537 793 313 90 132 87 37 14 0 0 0 49 57 34 30 46 45 43 71 32 50 43 207 518 441 293 125 20
721 734 685 1153 682 578 1075 1187 1243 957 760 950 1040 795 288 38 17 4 0 2 66 30 17 9 1 1 6 13 9 0 0 2 1 2 4 3 8 6 0 16 40 1 0
474 735 1046 679 635 479 320 678 1085 503 40 73 12 0 0 0 7 1 0 0 0 0 9 43 0 0 0 7 4 1 0 0 0 0 0 0 0 0 0 0 0 0 0
203 172 198 591 762 502 894 946 684 237 4 0 0 0 0 2 37 40 6 10 33 44 64 16 18 0 0 0 0 0 0 0 0 0 0 0 0 0 0 0 0 0 0
397 298 246 928 2095 1754 1132 781 433 211 93 1 2 2 20 30 17 9 4 9 35 85 137 23 0 0 0 0 0 0 0 0 0 0 0 0 0 0 0 0 0 0 0
795 467 495 632 1586 1843 1175 659 298 247 296 130 44 2 22 2 6 61 91 136 102 40 12 0 0 0 0 0 0 0 0 0 0 0 0 0 0 0 0 0 0 0 0
180 958 1074 1290 1493 1672 1054 629 388 288 218 32 1 5 13 54 63 44 36 94 65 2 0 0 0 0 0 0 0 0 0 0 0 0 0 0 0 0 0 0 0 0 0
0 104 351 392 296 40 0 244 279 407 277 282 320 193 162 100 9 3 0 0 8 0 0 0 0 0 0 0 0 0 0 0 0 0 0 0 0 0 0 0 0 0 0
0 0 0 0 0 0 0 82 311 136 118 165 115 28 27 0 0 0 0 0 0 0 0 0 0 0 0 0 0 0 0 0 0 0 0 0 0 0 0 0 0 0 0
0 0 0 0 0 0 0 90 112 49 0 0 0 0 0 0 0 0 0 0 0 0 0 0 0 0 0 0 0 0 0 0 0 0 0 0 0 0 0 0 0 0 0
0 0 0 0 0 0 12 160 21 0 0 0 0 0 0 0 0 0 0 0 0 0 0 0 0 0 0 0 0 0 0 0 0 0 0 0 0 0 0 0 0 0 0
0 0 0 0 0 0 13 74 39 2 0 0 0 0 0 0 0 0 0 0 0 0 0 0 0 0 0 0 0 0 0 0 0 0 0 0 0 0 0 0 0 1 0
28 0 3 27 16 29 3 12 5 0 0 0 0 0 0 0 0 0 0 0 0 0 0 0 0 0 0 0 0 0 0 0 0 0 0 0 0 0 0 0 0 0 0

GFSMW_con_mlcape_345.txt.gz
CAPE
89 72 41 6 0 4 20 27 42 68 127 242 293 299 478 442 329 164 144 286 357 622 945 1164 1163 1428 1392 1140 772 536 378 321 689 425 236 116 0 0 16 93 199 62 89
84 99 111 48 11 0 11 108 128 141 219 341 505 532 447 374 309 224 94 190 358 620 988 1281 1098 1305 1283 950 723 377 390 303 517 339 76 127 15 0 0 24 17 55 10
98 80 129 88 27 26 32 89 197 216 266 339 398 396 436 443 249 31 47 241 552 829 1153 1310 1240 1314 1113 774 495 241 179 329 474 319 311 164 12 0 0 0 2 4 0
9 17 13 48 71 90 87 145 222 301 336 430 429 450 567 557 312 16 138 397 582 832 1047 1314 1403 1244 899 978 838 430 170 120 341 483 547 287 54 22 0 0 0 0 0
34 67 19 30 8 75 142 172 261 391 475 545 559 567 627 509 281 123 251 569 625 904 1219 1352 1498 1377 1210 1241 855 672 155 9 12 314 536 422 115 1 21 37 0 0 2
236 130 69 12 12 55 188 238 283 469 590 640 700 699 657 532 313 178 219 583 668 737 870 1275 1529 1549 1381 1285 1234 819 743 458 435 627 747 514 384 192 103 166 150 52 154
232 292 217 93 41 86 214 279 322 481 650 718 738 684 632 516 360 209 260 611 679 633 691 901 1143 1324 1205 1380 1284 1243 896 374 240 109 209 499 482 446 307 148 117 30 96
64 364 322 245 185 131 213 321 323 450 590 708 705 623 548 509 412 338 439 663 777 969 850 813 935 1041 1148 1218 1293 1074 871 588 211 154 285 620 747 463 144 113 151 71 51
152 420 506 301 287 203 286 318 384 433 477 564 559 577 586 521 465 508 450 611 739 891 931 987 854 777 1080 1185 985 886 744 610 454 387 901 840 764 356 133 57 22 65 94
248 419 480 346 185 170 260 474 437 423 326 417 405 391 544 640 663 794 880 1356 1465 1355 1226 846 725 970 1080 941 826 596 222 122 2 9 68 948 673 492 286 62 25 43 76
302 477 675 576 418 339 459 556 630 567 479 506 518 546 544 588 584 693 879 1275 1221 867 497 102 610 451 634 725 610 516 301 157 206 125 133 862 436 346 180 106 61 3 16
909 898 877 746 657 637 586 692 790 806 669 654 680 546 843 1012 952 812 669 511 543 178 30 10 7 89 189 144 90 43 267 449 334 310 599 615 537 334 50 5 0 0 1
1207 1164 1064 1097 1198 1017 766 661 808 966 1082 862 873 1101 1402 1396 1320 1054 493 38 104 18 4 0 0 0 0 24 57 65 136 224 243 275 458 526 465 491 443 110 128 119 279
1520 876 2 0 112 971 1058 835 785 839 1016 1178 1218 1208 1391 1556 1120 452 120 107 49 13 0 0 0 0 0 1 2 0 7 52 59 40 31 80 145 159 309 300 271 163 151
484 778 371 684 737 829 638 701 832 1030 965 890 1023 1052 961 819 395 67 1 9 34 4 12 5 0 0 0 0 0 0 1 23 8 0 1 4 1 7 37 80 20 0 0
200 83 91 239 297 410 289 407 580 461 350 612 794 698 566 112 0 0 0 3 0 10 21 0 0 0 0 0 0 0 0 6 5 1 0 0 0 0 0 0 0 0 0
122 419 257 205 766 1329 860 660 545 267 201 376 499 298 166 65 0 0 0 0 0 5 14 27 0 0 0 0 0 0 0 0 0 0 0 0 0 0 0 0 0 0 0
122 241 262 335 359 1006 1133 772 291 46 2 34 52 33 43 83 15 0 0 0 12 94 62 0 0 0 0 0 0 0 0 0 0 0 0 0 0 0 0 0 0 0 0
100 98 206 291 481 1046 1266 994 694 204 0 0 0 0 0 0 0 6 9 15 35 18 6 0 0 0 0 0 0 0 0 0 0 0 0 0 0 0 0 0 0 0 0
0 0 115 744 946 1117 1273 1039 804 407 259 4 0 0 0 0 0 0 0 9 0 0 0 0 0 0 0 0 0 0 0 0 0 0 0 0 0 0 0 0 0 0 0
0 0 0 14 369 543 1023 919 840 527 156 36 0 0 0 1 1 0 1 10 0 0 0 0 0 0 0 0 0 0 0 0 0 0 0 0 0 0 0 0 0 0 0
0 0 0 0 0 0 0 0 0 26 97 0 1 8 6 1 0 0 0 0 0 0 0 0 0 0 0 0 0 0 0 0 0 0 0 0 0 0 0 0 0 0 0
0 0 0 0 0 0 0 0 0 0 42 30 41 38 0 0 0 0 0 0 0 0 0 0 0 0 0 0 0 0 0 0 0 0 0 0 0 0 0 0 0 0 0
0 0 1 0 0 0 0 0 26 0 1 18 1 0 0 0 0 0 0 0 0 0 0 0 0 0 0 0 0 0 0 0 0 0 0 0 0 0 0 0 0 0 0
0 0 2 0 0 0 0 9 24 7 0 0 0 0 0 0 0 0 0 0 0 0 0 0 0 0 0 0 0 0 0 0 0 0 0 0 0 0 0 0 0 0 0
0 2 2 2 0 0 2 0 99 19 3 4 0 0 0 0 0 0 0 0 0 0 0 0 0 0 0 0 0 0 0 0 0 0 0 0 0 0 0 0 0 0 0